TimeCEST,TemperatureF,Dew PointF,Humidity,Sea Level PressureIn,VisibilityMPH,Wind Direction,Wind SpeedMPH,Gust SpeedMPH,PrecipitationIn,Events,Conditions,WindDirDegrees,DateUTC
12:55 AM,33.8,26.6,75,30.48,6.2,SW,8.1,-,N/A,,Scattered Clouds,220,2013-10-03 22:55:00
1:55 AM,33.8,28.4,81,30.48,6.2,WSW,8.1,-,N/A,,Scattered Clouds,240,2013-10-03 23:55:00
2:00 AM,33,29,80,,6,WSW,8.1,,,,Mostly Cloudy,240,2013-10-04 00:00:00
2:55 AM,32.0,28.4,87,30.48,6.2,SW,8.1,-,N/A,,Scattered Clouds,230,2013-10-04 00:55:00
3:55 AM,33.8,30.2,87,30.48,6.2,WSW,8.1,-,N/A,,Scattered Clouds,240,2013-10-04 01:55:00
4:55 AM,33.8,28.4,81,30.51,6.2,WNW,3.5,-,N/A,,Scattered Clouds,300,2013-10-04 02:55:00
5:00 AM,33,28,73,,6,WNW,3.5,,,,Partly Cloudy,300,2013-10-04 03:00:00
6:55 AM,33.8,23.0,65,30.48,6.2,WSW,4.6,-,N/A,,Scattered Clouds,240,2013-10-04 04:55:00
7:55 AM,33.8,28.4,81,30.48,6.2,South,4.6,-,N/A,,Scattered Clouds,190,2013-10-04 05:55:00
8:00 AM,33,28,73,,12,South,4.6,,,,Partly Cloudy,190,2013-10-04 06:00:00
8:55 AM,33.8,26.6,75,30.48,6.2,South,4.6,-,N/A,,Scattered Clouds,180,2013-10-04 06:55:00
9:55 AM,35.6,24.8,65,30.51,6.2,SW,5.8,-,N/A,,Mostly Cloudy,220,2013-10-04 07:55:00
10:55 AM,35.6,26.6,70,30.51,6.2,SW,6.9,-,N/A,,Mostly Cloudy,220,2013-10-04 08:55:00
11:00 AM,35,27,63,,19,SW,6.9,,,,Overcast,220,2013-10-04 09:00:00
11:55 AM,35.6,26.6,70,30.51,6.2,SW,8.1,-,N/A,,Mostly Cloudy,220,2013-10-04 09:55:00
12:55 PM,28.4,23.0,80,30.51,6.2,SW,9.2,-,N/A,,Mostly Cloudy,220,2013-10-04 10:55:00
1:55 PM,37.4,30.2,75,30.51,6.2,SSW,6.9,-,N/A,,Scattered Clouds,200,2013-10-04 11:55:00
2:00 PM,37,29,65,,9,SSW,6.9,,,,Mostly Cloudy,200,2013-10-04 12:00:00
2:55 PM,37.4,28.4,70,30.48,6.2,SSW,9.2,-,N/A,,Scattered Clouds,210,2013-10-04 12:55:00
3:55 PM,37.4,28.4,70,30.48,6.2,SSW,5.8,-,N/A,,Scattered Clouds,200,2013-10-04 13:55:00
4:55 PM,37.4,28.4,70,30.48,6.2,SSW,11.5,-,N/A,,Mostly Cloudy,200,2013-10-04 14:55:00
5:00 PM,37,29,62,,9,SSW,11.5,,,,Mostly Cloudy,200,2013-10-04 15:00:00
5:55 PM,37.4,28.4,70,30.45,6.2,SW,13.8,-,N/A,,Scattered Clouds,220,2013-10-04 15:55:00
6:55 PM,35.6,28.4,75,30.48,6.2,SSW,15.0,-,N/A,,Scattered Clouds,210,2013-10-04 16:55:00
7:55 PM,35.6,30.2,81,30.45,6.2,SSW,19.6,-,N/A,,Mostly Cloudy,210,2013-10-04 17:55:00
8:00 PM,35,30,74,,6,SSW,19.6,,,,Mostly Cloudy,210,2013-10-04 18:00:00
8:55 PM,35.6,24.8,65,30.45,6.2,South,17.3,-,N/A,,Scattered Clouds,190,2013-10-04 18:55:00
9:55 PM,33.8,32.0,93,30.42,0.1,SSW,23.0,-,N/A,Fog-Rain,Light Rain,210,2013-10-04 19:55:00
10:55 PM,32.0,30.2,93,30.36,0.1,SSW,21.9,33.4,N/A,Fog-Snow,Light Snow,210,2013-10-04 20:55:00
11:00 PM,33,29,82,,0,SSW,21.9,,,Snow,Light Snow,210,2013-10-04 21:00:00
11:55 PM,32.0,28.4,87,30.39,0.1,SSW,17.3,29.9,N/A,Fog-Snow,Light Snow,210,2013-10-04 21:55:00